This demonstration page uses our WeatherBlox Daily Observations layout. Learn more.

36.17497, -115.13722

Hourly Observations for June 27, 2016

Temp ( °F °C ) Dew Point ( °F °C ) Humidity (%) Winds ( mph kmh ) Pressure ( in mb ) Visibility ( mi km ) Precip ( " mm )
12:53 am 00:53 Clear 95 35 34 1.1 12 12 Calm 29.83 1010 10 16.0934 0 0
1:53 am 01:53 Clear 89 31.7 35 1.7 15 15 N 3 6 29.83 1010 10 16.0934 0 0
2:53 am 02:53 Clear 90 32.2 34 1.1 14 14 NNW 5 7 29.84 1011 10 16.0934 0 0
3:53 am 03:53 Clear 86 30 33 0.6 15 15 NNW 7 11 29.85 1011 10 16.0934 0 0
4:53 am 04:53 Clear 85 29.4 39 3.9 20 20 N 7 11 29.87 1012 10 16.0934 0 0
5:53 am 05:53 Sunny 83 28.3 43 6.1 24 24 NNE 7 11 29.9 1012 10 16.0934 0 0
6:53 am 06:53 Sunny 86 30 48 8.9 27 27 N 7 11 29.92 1013 10 16.0934 0 0
7:53 am 07:53 Sunny 91 32.8 49 9.4 24 24 NE 5 7 29.94 1014 10 16.0934 0 0
8:53 am 08:53 Sunny 94 34.4 46 7.8 19 19 SE 6 9 29.94 1014 10 16.0934 0 0
9:53 am 09:53 Sunny 97 36.1 46 7.8 17 17 SE 7 11 29.94 1014 10 16.0934 0 0
10:53 am 10:53 Sunny 99 37.2 44 6.7 15 15 SSE 8 13 29.94 1014 10 16.0934 0 0
11:53 am 11:53 Sunny 102 38.9 43 6.1 13 13 VRB 5 7 29.92 1013 10 16.0934 0 0
12:53 pm 12:53 Sunny 104 40 44 6.7 13 13 Calm 29.9 1013 10 16.0934 0 0
1:53 pm 13:53 Sunny 105 40.6 43 6.1 12 12 SSE 6 9 29.88 1012 10 16.0934 0 0
2:53 pm 14:53 Sunny 107 41.7 38 3.3 9 9 Calm 29.85 1011 10 16.0934 0 0
3:53 pm 15:53 Sunny 108 42.2 38 3.3 9 9 Calm 29.83 1010 10 16.0934 0 0
4:53 pm 16:53 Sunny 108 42.2 35 1.7 8 8 SE 8 13 29.81 1010 10 16.0934 0 0
5:53 pm 17:53 Sunny 108 42.2 33 0.6 7 7 SW 5 7 29.81 1009 10 16.0934 0 0
6:53 pm 18:53 Sunny 108 42.2 31 -0.6 7 7 WSW 6 9 29.8 1009 10 16.0934 0 0
7:53 pm 19:53 Sunny 104 40 43 6.1 12 12 SSE 21 33 29.81 1010 10 16.0934 0 0
8:53 pm 20:53 Clear 102 38.9 43 6.1 13 13 S 13 20 29.83 1010 10 16.0934 0 0
9:53 pm 21:53 Clear 101 38.3 45 7.2 15 15 SSW 16 26 29.83 1010 10 16.0934 0 0
10:53 pm 22:53 Clear 99 37.2 45 7.2 16 16 SSW 18 30 29.84 1010 10 16.0934 0 0
11:53 pm 23:53 Clear 98 36.7 44 6.7 16 16 SSW 16 26 29.86 1011 10 16.0934 0 0

Powered by AerisWeather